Regional Weather Roundup
Issued by NWS Grand Forks, ND

Home | Current Version | Previous Version | Graphics & Text | Print | Product List | Glossary On
Versions: 1 2 3 4 5 6 7 8 9 10 11 12 13 14 15 16 17 18 19 20 21 22 23 24 25 26 27 28 29 30 31 32 33 34 35 36 37 38 39 40 41 42 43 44 45 46 47 48 49 50
000
ASUS43 KFGF 041610
RWRFGF
PRAIRIE TO PINES  WEATHER ROUNDUP
NATIONAL WEATHER SERVICE EASTERN NORTH DAKOTA/GRAND FORKS ND
1000 AM CST WED MAR 04 2015

 **SATELLITE DATA USED TO AUGMENT SKY COVER AT AUTOMATED STATIONS**
 *****  WEATHER ACROSS EASTERN NORTH DAKOTA  *****

CITY           SKY/WX    TMP DP  RH WIND       PRES   REMARKS
GRAND FORKS    MOSUNNY   -3 -14  59 NW21      30.27R WCI -26
GRAND FRKS AFB SUNNY     -3 -16  54 NW17      30.26R WCI -24
GRAND FRKS NWS   N/A     -2 N/A N/A N7          N/A  WCI -16
DEVILS LAKE    SUNNY     -8 -18  59 NW17      30.23R WCI -31
FARGO          MOSUNNY    0 -11  59 NW18      30.27R WCI -21
WAHPETON ARPT  NOT AVBL
$$

 ***** WEATHER ACROSS CENTRAL AND WESTERN NORTH DAKOTA  *****

CITY           SKY/WX    TMP DP  RH WIND       PRES   REMARKS
BISMARCK       MOSUNNY   -3 -15  56 N22G29    30.31R WCI -27
MINOT          SUNNY     -9 -19  61 NW16      30.29R WCI -32
JAMESTOWN      PTSUNNY   -5 -14  65 NW22      30.24R WCI -30
MINOT AFB      SUNNY    -10 -18  67 NW16      30.29R WCI -33
GARRISON         N/A     -9 -18  64 NW23      30.28R WCI -35
WILLISTON      SUNNY     -6 -17  59 NW10      30.33R WCI -24
DICKINSON      CLOUDY    -1 -11  62 NW20      30.22R WCI -23
HETTINGER      CLOUDY     0  -9  65 NW16G25   30.23R WCI -20
$$

 *****  OTHER AIRPORT OBSERVATIONS IN OUR AREA  *****

CITY           SKY/WX    TMP DP  RH WIND       PRES   REMARKS
WALHALLA       NOT AVBL
GRAFTON AIRPOR NOT AVBL
VALLEY CITY AR FLURRIES  -2 -11  65 NW17G23   30.24R WCI -24
CANDO          NOT AVBL
CAVALIER APRT  NOT AVBL
GWINNER        SUNNY      3  -9  55 NW23      30.27R WCI -19
SHEYENNE NWR     N/A      0 -15  50 NW13      29.95S WCI -18
ROLLA          NOT AVBL
 ***** THE ABOVE OBSERVATIONS ARE NON NWS ARE NOT QUALITY
       CONTROLLED AND MAY MIS-REPORT RAIN FOR SNOW...
$$

  *****  WEATHER ACROSS NORTHERN MINNESOTA  *****

CITY           SKY/WX    TMP DP  RH WIND       PRES   REMARKS
FLAG ISLAND    SUNNY     -9 -17  70 W14       30.10R WCI -31
WARROAD        SUNNY     -8 -17  65 W12       30.13R WCI -27
ROSEAU         PTSUNNY   -8 -15  71 W10G18    30.15R WCI -26
HALLOCK        NOT AVBL
THF RVR FALLS  SUNNY     -8 -18  59 NW14      30.19R WCI -28
BAUDETTE       SUNNY     -9 -17  68 W13       30.10R WCI -29
WASKISH        SUNNY     -6 -15  65 W9        30.13R WCI -22
CROOKSTON      SUNNY     -4 -11  71 N17       30.26R WCI -26
$$
  *****  WEATHER ACROSS CENTRAL AND WEST MINNESOTA  *****

CITY           SKY/WX    TMP DP  RH WIND       PRES   REMARKS
FOSSTON        SUNNY     -6 -17  59 NW13G18   30.19R WCI -25
BEMIDJI        SUNNY     -7 -16  66 W18G24    30.13R HAZE    WCI -30
PARK RAPIDS    CLOUDY    -3 -13  62 NW13      30.12R WCI -22
ELBOW LAKE     FAIR       0  -9  65 NW16      30.21R WCI -21
WADENA         SUNNY     -2 -11  65 NW13G18   30.15R WCI -21
DETROIT LAKES  MOSUNNY   -4  -9  77 NW16G22   30.19R WCI -25
MOORHEAD       SUNNY      0  -9  65 NW14      30.26R WCI -19
FERGUS FALLS   SUNNY      0 -11  60 NW18G24   30.26R WCI -22
MORRIS MN      SUNNY      3  -8  60 NW17      30.22R WCI -17
STAPLES        SUNNY     -2 -13  60 NW15G22   30.15R WCI -22
$$
  *****  WEATHER ELSEWHERE ACROSS MINNESOTA  *****

CITY           SKY/WX    TMP DP  RH WIND       PRES   REMARKS
DULUTH         MOSUNNY   -2 -13  59 NW14      30.03R WCI -21
INTRNTL FALLS  PTSUNNY   -8 -17  64 NW12G21   30.07R WCI -27
ELY            SUNNY     -6 -17  59 NW10      29.99S WCI -23
CLOQUET        MOSUNNY   -2 -13  60 W15G23    30.06S WCI -22
WHEATON        SUNNY      1  -9  60 W21G26    30.28R WCI -20
BRAINERD       MOSUNNY   -1 -12  59 NW14G20   30.14R WCI -20
HIBBING        PTSUNNY   -4 -14  62 NW14      30.05R WCI -24
ALEXANDRIA     SUNNY     -1 -10  65 NW16      30.18R WCI -21
SAINT CLOUD    SUNNY      2  -9  60 NW17G25   30.19R WCI -18
MINNEAPOLIS    PTSUNNY    5  -8  55 W14       30.23S WCI -12
$$

  *****  WEATHER ACROSS SOUTH DAKOTA  *****

CITY           SKY/WX    TMP DP  RH WIND       PRES   REMARKS
SIOUX FALLS    SUNNY     11   0  61 NW18G29   30.23R WCI  -7
BROOKINGS      NOT AVBL
WATERTOWN      CLOUDY     4  -5  66 NW17      30.19R WCI -16
HURON          SUNNY      6  -6  57 NW26G32   30.30R WCI -16
SISSETON       NOT AVBL
ABERDEEN       MIX PCPN   2  -9  60 NW22G31   30.31R WCI -20
MITCHELL       SUNNY     10  -2  58 NW25      30.32R WCI -11
PIERRE         SUNNY      8  -4  58 NW21G26   30.30R WCI -12
MOBRIDGE       MOSUNNY    5 -11  47 NW25      30.25R WCI -18
RAPID CITY     SUNNY     12   4  70 N16       30.20R WCI  -5
$$

  *****  SOME WEATHER IN NEARBY STATES *****

CITY           SKY/WX    TMP DP  RH WIND       PRES   REMARKS
GLASGOW MT     SUNNY      2  -8  63 W6        30.29R WCI  -9
GREAT FALLS MT SUNNY     13   2  61 SW10      30.13R WCI   0
CHEYENNE WY    SUNNY     11  -3  53 W10       30.06R WCI  -3
SCOTTSBLUFF NE SUNNY     17   5  59 NW8       30.20R WCI   7
OMAHA NE       MOSUNNY   24   7  48 W10       30.31S WCI  14
DES MOINES IA  PTSUNNY   17   0  47 NW12      30.30R WCI   4
DAVENPORT IA   SUNNY     10   0  63 NW18      30.23R WCI  -8
CHICAGO IL     CLOUDY    18   8  65 NW13      30.10R WCI   5
EAU CLAIRE WI  SUNNY      4  -8  57 NW17G24   30.17S WCI -16
LA CROSSE WI   SUNNY     10  -5  50 NW16G25   30.22R WCI  -7
$$

  *****  SOME NATIONAL WEATHER *****

CITY           SKY/WX    TMP DP  RH WIND       PRES   REMARKS
LA GUARDIA NY  CLOUDY    42  36  79 SW9       29.88R
RALEIGH NC     FOG       54  52  93 SW16      30.01F VSB 1/2
ATLANTA GA     CLOUDY    64  61  90 SW13      30.05F
NEW ORLEANS LA MOSUNNY   76  68  76 S9        30.01S
OKLAHOMA CITY  FRZ RAIN  28  19  69 N24G30    30.15R WCI  14
ALBUQUERQUE NM MOSUNNY   41  27  57 N8        29.97R
SALT LAKE CITY MOSUNNY   30  21  69 S6        30.17R WCI  24
LOS ANGELES CA MOSUNNY   55  43  63 CALM      30.06R
BOISE ID       SUNNY     26  16  65 CALM      30.26R
SEATTLE WA     SUNNY     36  21  54 SE5       30.29R
$$

*** WEATHER ACROSS MANITOBA...SASKATCHEWAN AND ONTARIO ***
                ***ONTARIO***

CITY           SKY/WX    TMP DP  RH WIND       PRES   REMARKS
GERALDTON      PTSUNNY   -6 -17  59 NW13G20   29.80R DRFTSNOWWCI -25
THUNDER BAY    MOSUNNY   -2 -17  50 W18G26    29.99R WCI -24
SIOUX LOOKOUT  CRYSTALS -11 -20  64 W7        29.96R WCI -26
TORONTO        PTSUNNY   30  19  64 W13       29.87R WCI  20
BIG TROUT LK   SUNNY    -13 -18  77 NW12      29.95R WCI -33
PICKLE LAKE    MOSUNNY   -8 -18  59 VRB5      29.88R WCI -19
DRYDEN         SUNNY    -11 -20  64 NW9       29.98R WCI -29
KENORA         CRYSTALS -11 -18  70 NW10      30.04R WCI -30
$$
                *** MANITOBA***

CITY           SKY/WX    TMP DP  RH WIND       PRES   REMARKS
BRANDON        SUNNY    -11 -20  64 NW12      30.27R WCI -31
DAUPHIN        SUNNY    -11 -20  64 W14       30.30S WCI -33
ISLAND LAKE    MOSUNNY  -15 -22  70 W9        30.12R WCI -33
PILOT MOUND    NOT AVBL
THE PAS        SUNNY    -13 -22  64 NW9       30.27R WCI -31
THOMPSON       SUNNY    -15 -24  64 NW8       30.14S WCI -32
WINNIPEG       MOSUNNY   -8 -17  65 NW20      30.24R WCI -32
LYNN LAKE      SUNNY    -18 -26  69 W9        30.11R WCI -38
GILLAM         MOSUNNY  -20 -27  69 W12       30.08R WCI -42
$$
                ***SASKATCHEWAN***

CITY           SKY/WX    TMP DP  RH WIND       PRES   REMARKS
ESTEVAN        SUNNY    -15 -24  64 NW15      30.30R WCI -38
KINDERSLEY     SUNNY     -9 -17  70 S8        30.23R WCI -26
LLOYDMINSTER   MOSUNNY   -9 -18  64 SW10      30.16S WCI -28
PRINCE ALBERT  SUNNY    -15 -24  64 W6        30.30R WCI -29
REGINA         SUNNY    -17 -24  70 NW8       30.31R WCI -34
YORKTON        SUNNY    -15 -24  64 W12       30.28R WCI -36
N. BATTLEFORD  SUNNY    -17 -22  76 SW2       30.28S
LA RONGE       SUNNY    -15 -24  64 W5        30.26S WCI -27
SASKATOON      SUNNY    -18 -26  69 SW7       30.32R WCI -35
SWIFT CURRENT  SUNNY     -9 -15  77 SW10      30.19S WCI -28
$$
NOTE: THESE ARE AUTOMATED STATIONS WITH LIMITED QUALITY CONTROL
      "FAIR" INDICATES FEW OR NO CLOUDS BELOW 12,000 FEET WITH NO
      SIGNIFICANT WEATHER AND/OR OBSTRUCTIONS TO VISIBILITY.
      SKY/WX - SKY CONDITION AND SIGNIFICANT WEATHER.
      TMP - AIR TEMPERATURE.    DP   - DEWPOINT TEMPERATURE.
      RH  - RELATIVE HUMIDITY.  PRES - PRESSURE.
      HX  - HEAT INDEX.         WCI  - WIND CHILL INDEX.
$



USA.gov is the U.S. government's official web portal to all federal, state and local government web resources and services.